EW2719 Weather Reports


time (UTC)temp
C
wind
direction
speed
KPH
gust
KPH
rain 1hr
cm
rain 24hr
cm
rain mn
cm
humidity
%
barometer
mb
20260507093011 11 326 0.0 6.4 0.00 0.00 0.00 75 1016.1
20260507091513 12 333 0.0 11.3 0.00 0.00 0.00 74 1016.1
20260507090008 11 14 1.6 8.0 0.00 0.00 0.00 75 1016.2
20260507084506 12 266 1.6 11.3 0.00 0.00 0.00 75 1016.0
20260507083003 11 202 0.0 8.0 0.00 0.00 0.00 76 1016.0
20260507081610 11 311 1.6 8.0 0.00 0.00 0.00 76 1015.8
20260507080115 11 39 0.0 3.2 0.00 0.00 0.00 77 1015.7
20260507074553 11 306 1.6 6.4 0.00 0.00 0.00 79 1015.5
20260507073049 10 306 0.0 6.4 0.00 0.00 0.00 80 1015.5
20260507071604 10 271 0.0 4.8 0.00 0.00 0.00 79 1015.5
20260507070042 10 246 0.0 4.8 0.00 0.00 0.00 80 1015.4
20260507064537 9 240 1.6 6.4 0.00 0.00 0.00 82 1015.4
20260507063041 8 254 1.6 4.8 0.00 0.00 0.00 83 1015.3
20260507061531 8 272 1.6 4.8 0.00 0.00 0.00 85 1015.2
20260507060030 8 292 0.0 1.6 0.00 0.00 0.00 85 1015.0
20260507054525 7 320 3.2 6.4 0.00 0.00 0.00 87 1014.9
20260507053021 7 204 0.0 0.0 0.00 0.00 0.00 88 1014.6
20260507051527 5 204 0.0 1.6 0.00 0.00 0.00 88 1014.5
20260507050013 4 283 0.0 4.8 0.00 0.00 0.00 88 1014.4
20260507044508 3 276 4.8 6.4 0.00 0.00 0.00 88 1014.3
20260507043010 3 288 1.6 6.4 0.00 0.00 0.00 89 1014.2
20260507041505 2 284 1.6 8.0 0.00 0.00 0.00 88 1014.0
20260507040118 2 277 3.2 8.0 0.00 0.00 0.00 88 1013.9
20260507034601 2 269 0.0 0.0 0.00 0.00 0.00 88 1013.8
20260507033101 2 293 0.0 4.8 0.00 0.00 0.00 88 1013.7
20260507031557 2 282 0.0 6.4 0.00 0.00 0.00 87 1013.8
20260507030055 2 300 4.8 8.0 0.00 0.00 0.00 86 1013.7
20260507024600 3 292 3.2 8.0 0.00 0.00 0.00 86 1013.7
20260507023047 3 339 3.2 8.0 0.00 0.00 0.00 86 1013.6
20260507021545 3 17 0.0 4.8 0.00 0.00 0.00 86 1013.4
20260507020045 3 360 0.0 6.4 0.00 0.00 0.00 85 1013.3
20260507014550 3 344 4.8 8.0 0.00 0.00 0.00 84 1013.3
20260507013036 4 15 3.2 6.4 0.00 0.00 0.00 82 1013.3
20260507011540 4 23 4.8 6.4 0.00 0.00 0.00 82 1013.2
20260507010036 4 19 4.8 6.4 0.00 0.00 0.00 81 1013.3
20260507004537 4 5 3.2 8.0 0.00 0.00 0.00 80 1013.3
20260507003031 5 5 6.4 9.7 0.00 0.00 0.00 79 1013.2
20260507001531 5 17 6.4 9.7 0.00 0.00 0.00 80 1013.1
20260507000029 5 15 8.0 12.9 0.00 0.00 0.00 79 1013.1
20260506234527 5 11 9.7 14.5 0.00 0.00 0.00 79 1013.1
20260506233024 5 15 6.4 11.3 0.00 0.00 0.00 77 1013.2
20260506231523 5 5 6.4 9.7 0.00 0.00 0.00 77 1013.2
20260506230021 5 5 8.0 12.9 0.00 0.00 0.00 75 1013.1
20260506224520 5 15 6.4 9.7 0.00 0.00 0.00 74 1013.0
20260506223017 5 10 6.4 9.7 0.00 0.00 0.00 74 1013.0
20260506221513 5 360 3.2 6.4 0.00 0.00 0.00 74 1012.9
20260506220028 5 355 4.8 9.7 0.00 0.00 0.00 74 1013.0
20260506214510 6 9 4.8 11.3 0.00 0.00 0.00 73 1012.7
20260506213010 6 15 6.4 12.9 0.00 0.00 0.00 74 1012.5
20260506211510 6 355 8.0 12.9 0.00 0.00 0.00 74 1012.7
20260506210013 6 360 6.4 12.9 0.00 0.00 0.00 76 1012.7
20260506204509 6 355 11.3 16.1 0.00 0.00 0.00 76 1012.6
20260506203013 6 355 11.3 16.1 0.00 0.00 0.00 76 1012.6
20260506201507 6 355 8.0 14.5 0.00 0.00 0.00 76 1012.6
20260506200005 7 360 8.0 14.5 0.00 0.00 0.00 75 1012.5
20260506194505 7 355 4.8 14.5 0.00 0.00 0.00 73 1012.4
20260506193002 8 355 8.0 16.1 0.00 0.00 0.00 72 1012.3
20260506191609 9 14 6.4 12.9 0.00 0.00 0.00 67 1011.9
20260506191501 9 18 6.4 12.9 0.00 0.00 0.00 67 1012.0
20260506190059 10 160 0.0 1.6 0.00 0.00 0.00 64 1011.7
20260506184559 11 150 0.0 1.6 0.00 0.00 0.00 63 1011.5
20260506183113 11 55 0.0 1.6 0.00 0.00 0.00 61 1011.3
20260506181601 11 44 3.2 8.0 0.00 0.00 0.00 61 1011.2
20260506180113 11 17 0.0 3.2 0.00 0.00 0.00 62 1011.2
20260506174553 11 100 0.0 6.4 0.00 0.00 0.00 64 1011.0
20260506173118 11 22 0.0 6.4 0.00 0.00 0.00 63 1010.9
20260506171548 12 35 4.8 9.7 0.00 0.00 0.00 63 1010.9
20260506170046 12 61 3.2 6.4 0.00 0.00 0.00 65 1010.8
20260506164544 12 25 6.4 14.5 0.00 0.00 0.00 60 1010.7
20260506163045 12 32 4.8 8.0 0.00 0.00 0.00 61 1010.7
20260506161552 13 30 4.8 9.7 0.00 0.00 0.00 57 1010.7
20260506160045 13 26 9.7 14.5 0.00 0.00 0.00 55 1010.7
20260506154544 13 36 4.8 14.5 0.00 0.00 0.00 48 1010.7
20260506153042 13 36 1.6 14.5 0.00 0.00 0.00 48 1010.8
20260506151545 13 36 3.2 17.7 0.00 0.00 0.00 47 1010.7
20260506150043 13 25 1.6 12.9 0.00 0.00 0.00 43 1010.8
20260506144558 14 26 9.7 12.9 0.00 0.00 0.00 51 1010.7
20260506143039 13 21 0.0 1.6 0.00 0.00 0.00 52 1010.7
20260506141540 12 17 4.8 9.7 0.00 0.00 0.00 49 1010.9
20260506140037 13 69 3.2 8.0 0.00 0.00 0.00 47 1010.9
20260506134536 13 27 4.8 16.1 0.00 0.00 0.00 52 1010.9
20260506133041 13 360 6.4 19.3 0.00 0.00 0.00 54 1010.8
20260506131534 14 74 1.6 16.1 0.00 0.00 0.00 53 1011.0
20260506130037 14 23 6.4 17.7 0.00 0.00 0.00 58 1010.9
20260506124532 14 30 14.5 20.9 0.00 0.00 0.00 59 1010.9
20260506123032 13 32 3.2 16.1 0.00 0.00 0.00 58 1011.0
20260506121530 14 11 3.2 17.7 0.00 0.00 0.00 61 1011.0
20260506120030 13 355 8.0 14.5 0.00 0.00 0.00 56 1011.1
20260506114527 13 73 1.6 11.3 0.00 0.00 0.00 56 1011.1
20260506113025 13 34 3.2 12.9 0.00 0.00 0.00 61 1011.2
20260506111524 13 355 3.2 12.9 0.00 0.00 0.00 64 1011.2
20260506110023 12 19 1.6 14.5 0.00 0.00 0.00 62 1011.3
20260506104526 12 43 1.6 12.9 0.00 0.00 0.00 66 1011.2
20260506103024 12 33 6.4 17.7 0.00 0.00 0.00 69 1011.2
20260506101523 12 21 8.0 16.1 0.00 0.00 0.00 72 1011.2
20260506100019 13 68 3.2 12.9 0.00 0.00 0.00 69 1011.2
20260506094516 12 17 1.6 14.5 0.00 0.00 0.00 62 1011.3